Regional Weather Roundup
Issued by NWS Green Bay, WI

Home | Current Version | Previous Version | Graphics & Text | Print | Product List | Glossary Off
Versions: 1 2 3 4 5 6 7 8 9 10 11 12 13 14 15 16 17 18 19 20 21 22 23 24 25 26 27 28 29 30 31 32 33 34 35 36 37 38 39 40 41 42 43 44 45 46 47 48 49 50

000
ASUS43 KGRB 230300
RWRGRB

NORTH-CENTRAL AND NORTHEAST WISCONSIN REGIONAL WEATHER ROUNDUP
NATIONAL WEATHER SERVICE GREEN BAY WI
1000 PM CDT FRI JUL 22 2016

WIZ005-009-010>012-018-019-230400-
NORTH CENTRAL WISCONSIN

CITY           SKY/WX    TMP DP  RH WIND       PRES   REMARKS
IRONWOOD       CLEAR     66  66 100 CALM      29.96R
MANITOWISH WTR NOT AVBL
ARBOR VITAE    NOT AVBL
EAGLE RIVER    NOT AVBL
LAND O LAKES   NOT AVBL
RHINELANDER    CLEAR     67  62  84 CALM      30.01S
PHILLIPS       NOT AVBL
ANTIGO         NOT AVBL
TOMAHAWK       NOT AVBL
MERRILL        NOT AVBL
$$

WIZ013-073-230400-
NORTHEAST WISCONSIN

CITY           SKY/WX    TMP DP  RH WIND       PRES   REMARKS
IRON MOUNTAIN  CLEAR     69  59  70 CALM      29.96R
MARINETTE      CLEAR     73  71  93 CALM      29.94S FOG
$$

WIZ017-030-035>037-045-230400-
CENTRAL WISCONSIN

CITY           SKY/WX    TMP DP  RH WIND       PRES   REMARKS
MEDFORD        NOT AVBL
WAUSAU         CLEAR     79  67  66 CALM      29.97S
MOSINEE        CLEAR     77  70  78 W5        30.00S
MARSHFIELD     CLEAR     74  67  78 CALM      30.00R
WISC RAPIDS    CLEAR     73  67  81 CALM      29.99S
STEVENS POINT  NOT AVBL
WAUPACA        NOT AVBL
SHAWANO        NOT AVBL
CLINTONVILLE   NOT AVBL
WAUTOMA        CLEAR     74  71  91 CALM      29.98R
$$

WIZ038-039-048-051-230400-
FOX VALLEY

CITY           SKY/WX    TMP DP  RH WIND       PRES   REMARKS
NWS GREEN BAY  CLEAR     77  72  84 W3        29.95R
APPLETON       PTCLDY    79  64  61 W6        29.96R
OSHKOSH        CLEAR     75  71  87 CALM      29.97R
FOND DU LAC    CLEAR     78  74  87 SW5       29.97R
$$

WIZ022-050-052-230400-
EAST CENTRAL WISCONSIN

CITY           SKY/WX    TMP DP  RH WIND       PRES   REMARKS
EPHRAIM        NOT AVBL
WASHINGTON ISL NOT AVBL
STURGEON BAY   CLEAR     79  69  71 CALM      29.95S
MANITOWOC      NOT AVBL
SHEBOYGAN      CLEAR     73  70  90 CALM      29.97R
$$

LMZ563-521-522-541>543-230400-
LAKESHORE

STATION/POSITION TIME  TEMP    WIND        PRES    VSBY  WAVE
                       AIR SEA DIR/SP/G                  HT/PER
                 (UTC) (F)     (DEG/KT/KT) (MB)    (MI)  (FT/S)
SHEBOYGAN LKSHOR 0200   68     180/  8/  9 1014.6R
KEWAUNEE LKSHORE 0200           CALM  /  1   N/A
NORTHPORT PIER   0200   78     230/  5/  6 1013.2R
N MID LAKE BUOY  0150   70 68  230/ 12/ 14 1012.4R         2/ 5
S GREEN BAY BUOY 0200   78 75  230/  6/  6   N/A
CHAMBERS ISLAND  0200   76      CALM  /  5 1013.5R
MENOMINEE LKSHOR 0200   80     310/  3/  5   N/A
$$




USA.gov is the U.S. government's official web portal to all federal, state and local government web resources and services.